Location: Napier
(39.4830°S, 176.9170°E)
Time: 08:14:03
(UTC+13:00)

Atlas Centaur 2 - Pass Details

Date: 24 January 2019
Orbit: 459 x 1311 km, 30.4° (Epoch: 20 February)

Event Time Altitude Azimuth Distance (km) Brightness Sun altitude
Rises 22:21:45 0° 288° (WNW) 4,208 6.2 -17.5°
Reaches altitude 10° 22:24:46 10° 294° (WNW) 3,294 5.5 -17.9°
Maximum altitude 22:32:44 45° 2° (N) 1,719 3.4 -18.9°
Enters shadow 22:36:37 29° 54° (NE) 2,185 3.7 -19.4°
